Powrót do katalogu

OPS 4682 DEB

AktywnyPO
NORAD 38442·DEBRIS·🇺🇸 United States

Wystrzelony Apr 3, 1965 z Vandenberg Space Force Base

Loading…

Następne Przeloty (najbliższe 24 godziny)

TLE

Starzejące sięSource: Space-Track

Epoka: Sep 9, 2026, 14:40 UTC

1 38442U 65027EX  26252.61158745 -.00000623  00000-0 -22801-2 0  9993
2 38442  90.2485   7.6791 0029665  20.3710 339.8584 12.93937841598494

Śledź OPS 4682 DEB w czasie rzeczywistym z AllMySat

Download on the App Store